TimeEST,TemperatureF,Dew PointF,Humidity,Sea Level PressureIn,VisibilityMPH,Wind Direction,Wind SpeedMPH,Gust SpeedMPH,PrecipitationIn,Events,Conditions,WindDirDegrees,DateUTC
12:56 AM,39.0,27.0,62,30.30,10.0,NNW,4.6,-,N/A,,Overcast,330,2013-01-15 05:56:00
1:56 AM,39.0,27.0,62,30.33,10.0,WNW,9.2,-,N/A,,Overcast,300,2013-01-15 06:56:00
2:56 AM,37.0,25.0,62,30.28,10.0,Calm,Calm,-,0.00,,Partly Cloudy,0,2013-01-15 07:56:00
3:56 AM,37.4,26.6,65,30.24,10.0,West,3.5,-,N/A,,Mostly Cloudy,280,2013-01-15 08:56:00
4:56 AM,36.0,25.0,64,30.26,10.0,NW,3.5,-,N/A,,Mostly Cloudy,310,2013-01-15 09:56:00
5:56 AM,34.0,24.1,67,30.27,10.0,NW,3.5,-,N/A,,Clear,310,2013-01-15 10:56:00
6:56 AM,32.0,24.8,75,30.26,10.0,NW,3.5,-,N/A,,Clear,320,2013-01-15 11:56:00
6:57 AM,32.0,24.8,75,30.26,10.0,Calm,Calm,-,N/A,,Mostly Cloudy,0,2013-01-15 11:57:00
7:56 AM,28.9,24.1,82,30.34,10.0,Calm,Calm,-,N/A,,Clear,0,2013-01-15 12:56:00
8:56 AM,36.0,25.0,64,30.34,10.0,NNW,5.8,-,N/A,,Clear,330,2013-01-15 13:56:00
9:56 AM,39.0,24.1,55,30.35,10.0,NNW,8.1,-,N/A,,Mostly Cloudy,340,2013-01-15 14:56:00
10:56 AM,39.9,24.1,53,30.33,10.0,NNW,4.6,-,N/A,,Mostly Cloudy,340,2013-01-15 15:56:00
11:56 AM,39.9,23.0,51,30.31,10.0,NNW,6.9,-,N/A,,Overcast,330,2013-01-15 16:56:00
12:56 PM,39.9,23.0,51,30.30,10.0,NNE,3.5,-,N/A,,Overcast,30,2013-01-15 17:56:00
1:56 PM,39.9,23.0,51,30.30,10.0,NNW,4.6,-,N/A,,Overcast,340,2013-01-15 18:56:00
2:56 PM,39.9,23.0,51,30.29,10.0,NW,3.5,-,N/A,,Clear,310,2013-01-15 19:56:00
3:56 PM,39.0,21.9,50,30.28,10.0,Calm,Calm,-,N/A,,Clear,0,2013-01-15 20:56:00
4:56 PM,37.0,21.9,54,30.30,10.0,West,3.5,-,N/A,,Clear,280,2013-01-15 21:56:00
5:56 PM,33.8,24.8,70,30.25,10.0,Calm,Calm,-,N/A,,Clear,0,2013-01-15 22:56:00
6:56 PM,30.0,24.1,79,30.32,10.0,Calm,Calm,-,N/A,,Clear,0,2013-01-15 23:56:00
7:56 PM,30.9,24.1,76,30.32,10.0,Calm,Calm,-,N/A,,Clear,0,2013-01-16 00:56:00
8:56 PM,28.9,25.0,85,30.30,10.0,Calm,Calm,-,N/A,,Clear,0,2013-01-16 01:56:00
9:56 PM,30.0,25.0,82,30.30,10.0,Calm,Calm,-,N/A,,Clear,0,2013-01-16 02:56:00
10:56 PM,30.0,25.0,82,30.28,10.0,Calm,Calm,-,N/A,,Clear,0,2013-01-16 03:56:00
11:56 PM,30.0,27.0,88,30.28,10.0,Calm,Calm,-,N/A,,Mostly Cloudy,0,2013-01-16 04:56:00